EW4685 Weather Reports


Display with metric or nautical units.
time (UTC)temp
F
wind
direction
speed
MPH
gust
MPH
rain 1hr
in
rain 24hr
in
rain mn
in
humidity
%
barometer
mb
20260906031549 63 294 2.0 8.0 0.00 0.17 0.03 58 1016.8
20260906031049 63 17 3.0 8.0 0.00 0.18 0.03 58 1017.0
20260906030819 64 52 2.0 7.0 0.00 0.18 0.03 56 1017.1
20260906030049 64 26 3.0 8.0 0.00 0.18 0.03 54 1017.0
20260906025551 64 270 3.0 10.0 0.00 0.18 0.03 56 1017.0
20260906025050 65 42 2.0 10.0 0.00 0.18 0.03 53 1017.0
20260906024551 65 72 1.0 7.0 0.00 0.18 0.03 54 1016.9
20260906024046 65 56 1.0 5.0 0.00 0.18 0.03 52 1016.9
20260906023546 65 67 2.0 5.0 0.00 0.18 0.03 47 1016.8
20260906023046 65 27 1.0 5.0 0.00 0.18 0.03 47 1016.9
20260906022546 65 149 1.0 5.0 0.00 0.18 0.03 47 1016.9
20260906022313 65 36 1.0 5.0 0.00 0.18 0.03 47 1016.9
20260906021546 64 250 0.0 3.0 0.00 0.18 0.03 47 1017.0
20260906021045 64 228 1.0 4.0 0.00 0.18 0.03 49 1016.9
20260906020808 64 244 1.0 4.0 0.00 0.18 0.03 50 1016.9
20260906020046 64 236 0.0 4.0 0.00 0.18 0.03 50 1016.9
20260906015546 64 260 0.0 2.0 0.00 0.18 0.03 50 1017.0
20260906015046 64 244 0.0 4.0 0.00 0.18 0.03 50 1017.0
20260906014546 63 217 1.0 4.0 0.00 0.18 0.03 50 1017.0
20260906014045 63 282 0.0 3.0 0.00 0.18 0.03 50 1016.9
20260906013546 63 308 0.0 5.0 0.00 0.18 0.03 51 1016.9
20260906013044 63 224 0.0 5.0 0.00 0.18 0.03 49 1016.8
20260906012546 63 201 0.0 2.0 0.00 0.18 0.03 49 1016.9
20260906012316 62 218 1.0 5.0 0.00 0.18 0.03 49 1016.8
20260906011541 62 351 1.0 6.0 0.00 0.18 0.03 49 1016.9
20260906011043 62 38 1.0 6.0 0.00 0.18 0.03 50 1016.9
20260906010537 62 102 0.0 3.0 0.00 0.18 0.03 50 1016.8
20260906010029 62 282 0.0 4.0 0.00 0.18 0.03 52 1016.8
20260906005525 61 278 0.0 4.0 0.00 0.18 0.03 52 1016.9
20260906005019 61 321 1.0 3.0 0.00 0.18 0.03 52 1016.8
20260906004949 61 186 1.0 5.0 0.00 0.19 0.03 51 1016.8
20260906004013 60 93 1.0 5.0 0.00 0.19 0.03 52 1016.7
20260906003511 61 176 1.0 4.0 0.00 0.19 0.03 53 1016.7
20260906003011 60 57 1.0 3.0 0.00 0.19 0.03 54 1016.5
20260906002727 60 76 1.0 3.0 0.00 0.20 0.03 53 1016.7
20260906002010 60 27 0.0 3.0 0.00 0.20 0.03 53 1016.7
20260906001732 59 180 0.0 3.0 0.00 0.20 0.03 54 1016.5
20260906001010 59 262 0.0 5.0 0.00 0.20 0.03 55 1016.5
20260906000501 59 190 0.0 5.0 0.00 0.21 0.03 53 1016.5
20260906000002 59 236 0.0 1.0 0.00 0.22 0.03 55 1016.7
20260905235501 58 216 0.0 5.0 0.00 0.24 0.03 56 1016.5
20260905234959 58 217 0.0 5.0 0.00 0.26 0.03 57 1016.5
20260905234726 58 71 0.0 2.0 0.00 0.26 0.03 55 1016.5
20260905233956 58 240 0.0 3.0 0.00 0.27 0.03 56 1016.4
20260905233455 58 342 1.0 4.0 0.00 0.28 0.03 59 1016.3
20260905232951 58 215 1.0 4.0 0.00 0.28 0.03 56 1016.3
20260905232452 58 7 0.0 3.0 0.00 0.28 0.03 56 1016.2
20260905231952 58 269 0.0 0.0 0.00 0.28 0.03 57 1016.2
20260905231449 57 269 0.0 2.0 0.00 0.28 0.03 57 1016.2
20260905230947 57 341 0.0 3.0 0.00 0.28 0.03 60 1016.2
20260905230709 57 339 0.0 3.0 0.00 0.28 0.03 59 1016.1
20260905225941 56 25 0.0 4.0 0.00 0.28 0.03 60 1016.0
20260905225657 56 349 0.0 4.0 0.00 0.28 0.03 60 1016.0
20260905224930 56 334 1.0 4.0 0.00 0.28 0.03 62 1015.9
20260905224425 55 17 1.0 5.0 0.00 0.28 0.03 63 1015.9
20260905223918 55 34 1.0 5.0 0.00 0.28 0.03 65 1015.9
20260905223412 54 303 1.0 4.0 0.00 0.28 0.03 65 1015.8
20260905222907 54 22 2.0 6.0 0.00 0.28 0.03 66 1015.7
20260905222401 53 339 2.0 6.0 0.00 0.28 0.03 67 1015.7
20260905221856 53 17 1.0 5.0 0.00 0.28 0.03 68 1015.7
20260905221349 53 9 1.0 4.0 0.00 0.28 0.03 67 1015.5
20260905220842 53 260 1.0 4.0 0.00 0.28 0.03 68 1015.4
20260905220604 52 288 1.0 4.0 0.00 0.28 0.03 69 1015.4
20260905215830 52 313 0.0 3.0 0.00 0.28 0.03 69 1015.4
20260905215326 52 295 0.0 3.0 0.00 0.28 0.03 69 1015.3
20260905214818 51 10 1.0 3.0 0.00 0.28 0.03 70 1015.2
20260905214311 51 36 1.0 4.0 0.00 0.28 0.03 71 1015.1
20260905213813 50 318 1.0 4.0 0.00 0.28 0.03 72 1015.1
20260905213520 49 32 1.0 4.0 0.00 0.28 0.03 73 1015.0
20260905213019 49 330 1.0 5.0 0.00 0.28 0.03 74 1014.8
20260905212249 49 358 1.0 5.0 0.00 0.28 0.03 74 1014.8
20260905211741 48 321 0.0 3.0 0.00 0.28 0.03 75 1014.7
20260905211508 48 39 1.0 6.0 0.00 0.28 0.03 75 1014.5
20260905210728 47 38 1.0 6.0 0.00 0.28 0.03 75 1014.5
20260905210223 47 43 1.0 8.0 0.00 0.28 0.03 76 1014.4
20260905205717 47 25 1.0 8.0 0.00 0.28 0.03 76 1014.2
20260905205211 46 20 1.0 5.0 0.00 0.28 0.03 76 1013.9
20260905204707 46 27 0.0 2.0 0.00 0.28 0.03 76 1013.9
20260905204159 47 40 0.0 2.0 0.00 0.28 0.03 75 1013.8
20260905203915 47 334 0.0 2.0 0.00 0.28 0.03 75 1013.8
20260905203147 47 311 0.0 1.0 0.00 0.28 0.03 74 1013.6
20260905202640 47 326 0.0 2.0 0.00 0.28 0.03 73 1013.7
20260905202136 47 313 0.0 2.0 0.00 0.28 0.03 73 1013.6
20260905201630 47 90 0.0 2.0 0.00 0.28 0.03 73 1013.6
20260905201125 48 90 0.0 4.0 0.00 0.28 0.03 73 1013.1
20260905200619 47 51 1.0 4.0 0.00 0.28 0.03 74 1013.0
20260905200111 47 44 1.0 5.0 0.00 0.28 0.03 75 1012.8
20260905195605 47 28 0.0 5.0 0.00 0.28 0.03 75 1012.7
20260905195320 47 62 0.0 3.0 0.00 0.28 0.03 75 1012.8
20260905194554 47 47 0.0 2.0 0.00 0.28 0.03 74 1012.9
20260905194046 47 50 0.0 2.0 0.00 0.28 0.03 74 1013.0
20260905193540 47 65 0.0 2.0 0.00 0.28 0.03 74 1012.9
20260905193304 47 11 0.0 3.0 0.00 0.28 0.03 74 1013.0
20260905192529 48 42 1.0 5.0 0.00 0.28 0.03 73 1012.9
20260905192024 48 293 2.0 8.0 0.00 0.28 0.03 73 1012.7
20260905191517 48 337 3.0 8.0 0.00 0.28 0.03 74 1012.6
20260905191011 48 267 2.0 7.0 0.00 0.28 0.03 74 1012.6
20260905190512 48 339 2.0 6.0 0.00 0.28 0.03 74 1012.6
20260905185958 48 295 1.0 6.0 0.00 0.28 0.03 73 1012.6
20260905185454 48 268 1.0 6.0 0.00 0.28 0.03 73 1012.6
20260905184947 48 283 1.0 6.0 0.00 0.28 0.03 73 1012.7
20260905184448 48 267 1.0 5.0 0.00 0.28 0.03 74 1012.6
20260905183948 48 271 0.0 4.0 0.00 0.28 0.03 74 1012.8
20260905183447 48 232 0.0 3.0 0.00 0.28 0.03 74 1012.7
20260905183210 48 268 0.0 3.0 0.00 0.28 0.03 73 1012.6
20260905182446 48 117 0.0 2.0 0.00 0.28 0.03 73 1012.5
20260905181943 48 290 1.0 5.0 0.00 0.28 0.03 73 1012.4
20260905181441 48 261 1.0 5.0 0.00 0.28 0.03 73 1012.3
20260905181259 48 281 1.0 7.0 0.00 0.28 0.03 73 1012.3
20260905175941 48 315 1.0 5.0 0.00 0.28 0.03 73 1012.0
20260905175703 48 255 1.0 8.0 0.00 0.28 0.03 72 1012.1
20260905174937 48 292 1.0 8.0 0.00 0.28 0.03 72 1011.9
20260905174437 48 263 1.0 8.0 0.00 0.28 0.03 72 1011.9
20260905173942 48 242 1.0 8.0 0.00 0.28 0.03 72 1011.8
20260905173437 48 248 2.0 13.0 0.00 0.28 0.03 72 1011.5
20260905172939 48 301 3.0 13.0 0.00 0.28 0.03 73 1011.2
20260905172919 48 268 2.0 9.0 0.00 0.28 0.03 74 1010.9
20260905171933 48 271 2.0 7.0 0.00 0.28 0.03 74 1011.1
20260905171432 48 268 2.0 7.0 0.00 0.28 0.03 75 1011.3
20260905171156 47 276 1.0 6.0 0.00 0.28 0.03 75 1011.2
20260905170433 48 273 0.0 4.0 0.00 0.28 0.03 75 1011.3
20260905165932 48 244 1.0 6.0 0.00 0.28 0.03 75 1011.4
20260905165659 48 251 1.0 6.0 0.00 0.28 0.03 75 1011.2
20260905164933 48 289 1.0 6.0 0.00 0.28 0.03 76 1011.1
20260905164657 48 246 1.0 4.0 0.00 0.28 0.03 75 1010.8
20260905163928 48 286 1.0 8.0 0.00 0.28 0.03 75 1010.7
20260905163430 48 244 2.0 8.0 0.00 0.28 0.03 75 1010.6
20260905162928 48 284 2.0 8.0 0.00 0.28 0.03 75 1010.7
20260905162429 48 277 1.0 8.0 0.00 0.28 0.03 75 1010.7
20260905161928 48 256 2.0 6.0 0.00 0.28 0.03 74 1010.6
20260905161429 48 261 2.0 14.0 0.00 0.28 0.03 74 1010.6
20260905160929 48 295 2.0 14.0 0.00 0.28 0.03 74 1010.6
20260905160429 48 282 1.0 5.0 0.00 0.28 0.03 75 1010.6
20260905155929 48 258 1.0 6.0 0.00 0.28 0.03 75 1010.8
20260905155656 48 306 1.0 6.0 0.00 0.28 0.03 75 1010.8
20260905154928 48 282 0.0 6.0 0.00 0.28 0.03 75 1011.0
20260905154429 48 193 2.0 11.0 0.00 0.28 0.03 75 1011.0
20260905153929 48 287 4.0 11.0 0.00 0.28 0.03 75 1010.7
20260905153429 48 296 3.0 11.0 0.00 0.28 0.03 76 1010.7
20260905152926 48 315 3.0 8.0 0.00 0.28 0.03 77 1010.6
20260905152427 48 280 3.0 12.0 0.00 0.28 0.03 78 1011.1
20260905151925 47 267 2.0 12.0 0.01 0.28 0.03 79 1011.1
20260905151425 47 329 2.0 10.0 0.02 0.28 0.03 80 1010.7
20260905150925 47 338 2.0 9.0 0.03 0.28 0.03 80 1010.5
20260905150424 47 261 3.0 11.0 0.03 0.28 0.03 80 1010.6
20260905145923 47 298 2.0 11.0 0.03 0.28 0.03 81 1010.6
20260905145418 47 306 1.0 10.0 0.03 0.28 0.03 83 1010.7
20260905144912 47 334 1.0 5.0 0.03 0.28 0.03 84 1010.7
20260905144406 47 284 1.0 5.0 0.03 0.28 0.03 86 1010.8
20260905143900 47 312 1.0 5.0 0.03 0.28 0.03 86 1010.7
20260905143354 47 318 1.0 5.0 0.03 0.28 0.03 86 1010.7
20260905142848 47 300 1.0 8.0 0.03 0.28 0.03 85 1010.9
20260905142342 48 291 2.0 10.0 0.03 0.28 0.03 83 1010.7
20260905141836 49 275 3.0 11.0 0.02 0.26 0.02 80 1010.7
20260905141330 50 343 2.0 11.0 0.00 0.24 0.01 75 1010.7
20260905140823 51 223 2.0 11.0 0.00 0.24 0.00 71 1010.6
20260905140318 51 315 2.0 11.0 0.00 0.24 0.00 69 1010.4
20260905135814 50 275 2.0 13.0 0.00 0.24 0.24 69 1010.3
20260905135307 50 248 2.0 13.0 0.00 0.24 0.24 69 1010.3
20260905134807 50 289 2.0 12.0 0.00 0.24 0.24 68 1010.2
20260905134307 51 276 2.0 8.0 0.00 0.24 0.24 69 1010.1
20260905134253 50 275 2.0 9.0 0.00 0.24 0.24 69 1010.3
20260905133307 50 295 2.0 9.0 0.00 0.24 0.24 69 1010.3
20260905132808 51 286 2.0 8.0 0.00 0.24 0.24 70 1010.5
20260905132307 51 281 2.0 8.0 0.00 0.24 0.24 69 1010.3
20260905131807 51 157 2.0 9.0 0.00 0.24 0.24 70 1010.3
20260905131526 51 254 3.0 10.0 0.00 0.24 0.24 71 1010.3
20260905130803 51 256 3.0 12.0 0.00 0.24 0.24 71 1010.3
20260905130303 51 270 3.0 12.0 0.00 0.24 0.24 72 1010.4
20260905125803 51 277 2.0 11.0 0.00 0.24 0.24 73 1010.4
20260905125306 50 283 2.0 11.0 0.00 0.24 0.24 74 1010.4
20260905124803 50 300 2.0 7.0 0.00 0.24 0.24 75 1010.4
20260905124304 50 297 2.0 11.0 0.00 0.24 0.24 76 1010.3
20260905123803 50 265 2.0 11.0 0.00 0.24 0.24 76 1010.4
20260905123301 50 275 2.0 9.0 0.00 0.24 0.24 77 1010.4
20260905122757 51 256 3.0 11.0 0.00 0.24 0.24 76 1010.2
20260905122514 51 224 4.0 12.0 0.00 0.24 0.24 75 1010.1
20260905122023 51 48 4.0 13.0 0.00 0.24 0.24 74 1010.2
20260905121256 52 253 6.0 17.0 0.00 0.24 0.24 72 1009.8
20260905120756 53 266 6.0 18.0 0.00 0.24 0.24 69 1009.8
20260905120257 53 306 4.0 18.0 0.00 0.24 0.24 69 1009.8
20260905115757 53 329 3.0 12.0 0.00 0.24 0.24 69 1009.7
20260905115257 53 313 3.0 10.0 0.00 0.24 0.24 68 1009.5
20260905114757 53 296 2.0 10.0 0.00 0.24 0.24 68 1009.5
20260905114254 53 324 1.0 5.0 0.00 0.24 0.24 67 1009.6
20260905113754 53 56 2.0 8.0 0.00 0.24 0.24 66 1009.5
20260905113254 53 320 2.0 10.0 0.00 0.24 0.24 65 1009.6
20260905112754 53 326 2.0 10.0 0.00 0.24 0.24 65 1009.7
20260905112254 53 33 2.0 7.0 0.00 0.24 0.24 65 1009.8
20260905111755 53 304 3.0 9.0 0.00 0.24 0.24 64 1010.2
20260905111255 54 273 3.0 9.0 0.00 0.24 0.24 63 1010.2
20260905111012 54 340 3.0 10.0 0.00 0.24 0.24 64 1010.1
20260905110254 54 258 3.0 10.0 0.00 0.24 0.24 63 1010.1
20260905105753 54 298 2.0 10.0 0.00 0.24 0.24 64 1010.0
20260905105254 54 281 2.0 10.0 0.00 0.24 0.24 63 1010.0
20260905104755 55 302 4.0 15.0 0.00 0.24 0.24 63 1010.0
20260905104253 55 295 5.0 15.0 0.00 0.24 0.24 62 1009.8
20260905103753 55 320 4.0 14.0 0.00 0.24 0.24 62 1010.0
20260905103254 55 270 4.0 12.0 0.00 0.24 0.24 63 1009.8
20260905102754 55 267 5.0 12.0 0.00 0.24 0.24 62 1009.8
20260905102254 55 299 4.0 11.0 0.00 0.24 0.24 63 1009.7
20260905101753 55 269 3.0 8.0 0.00 0.24 0.24 65 1009.7
20260905101253 55 340 3.0 8.0 0.00 0.24 0.24 65 1009.7
20260905100754 55 310 3.0 8.0 0.00 0.24 0.24 64 1009.5
20260905100251 55 251 3.0 8.0 0.00 0.24 0.24 64 1009.5
20260905095752 55 0 3.0 9.0 0.00 0.24 0.24 63 1009.4
20260905095245 56 316 5.0 12.0 0.00 0.24 0.24 63 1009.4
20260905094740 56 298 6.0 17.0 0.00 0.24 0.24 63 1009.3
20260905094234 56 293 5.0 17.0 0.00 0.24 0.24 64 1009.1
20260905093727 56 57 5.0 18.0 0.00 0.24 0.24 65 1009.1
20260905093315 56 287 5.0 18.0 0.00 0.24 0.24 65 1009.1
20260905092209 56 310 5.0 17.0 0.00 0.24 0.24 69 1008.6
20260905091708 56 288 6.0 19.0 0.00 0.24 0.24 68 1008.7
20260905091207 56 326 5.0 19.0 0.00 0.24 0.24 69 1008.6
20260905090704 56 248 4.0 16.0 0.00 0.24 0.24 71 1008.6
20260905090204 56 213 4.0 14.0 0.00 0.24 0.24 71 1008.6
20260905085705 56 228 4.0 14.0 0.00 0.24 0.24 72 1008.5
20260905085204 55 348 3.0 14.0 0.00 0.24 0.24 73 1008.5
20260905084704 55 251 3.0 11.0 0.00 0.24 0.24 74 1008.3
20260905084204 55 282 3.0 11.0 0.00 0.24 0.24 75 1008.1
20260905083706 55 330 3.0 8.0 0.00 0.24 0.24 76 1008.1
20260905083205 55 265 3.0 10.0 0.00 0.24 0.24 76 1008.0
20260905082704 55 270 3.0 13.0 0.00 0.24 0.24 77 1008.0
20260905082204 55 289 3.0 13.0 0.00 0.24 0.24 77 1007.9
20260905081704 55 252 3.0 14.0 0.00 0.24 0.24 77 1007.8
20260905081204 55 277 4.0 14.0 0.00 0.24 0.24 77 1007.7
20260905080704 55 7 4.0 12.0 0.00 0.24 0.24 77 1007.8
20260905080206 55 294 4.0 12.0 0.00 0.24 0.24 78 1007.9
20260905075705 55 242 3.0 11.0 0.00 0.24 0.24 78 1007.7
20260905075159 55 276 3.0 11.0 0.00 0.24 0.24 78 1007.7
20260905074655 55 277 3.0 11.0 0.01 0.24 0.24 78 1007.8
20260905074147 55 294 3.0 13.0 0.02 0.24 0.24 78 1007.7
20260905073909 55 311 4.0 13.0 0.02 0.24 0.24 78 1007.8
20260905073135 55 295 4.0 12.0 0.02 0.24 0.24 79 1007.8
20260905072629 55 315 4.0 14.0 0.02 0.24 0.24 80 1007.7
20260905072125 55 295 4.0 14.0 0.03 0.24 0.24 81 1007.7
20260905071619 55 315 4.0 13.0 0.03 0.24 0.24 83 1007.7
20260905071333 55 268 4.0 15.0 0.05 0.24 0.24 85 1007.7
20260905070612 55 325 5.0 16.0 0.05 0.24 0.24 86 1007.6
20260905070059 55 268 4.0 16.0 0.05 0.24 0.24 89 1007.7
20260905065556 54 65 4.0 14.0 0.05 0.24 0.24 90 1007.5
20260905065047 54 346 4.0 11.0 0.04 0.24 0.24 91 1007.6
20260905064541 54 189 4.0 11.0 0.04 0.24 0.24 91 1007.4
20260905064040 54 257 4.0 14.0 0.03 0.23 0.23 91 1007.6
20260905063750 55 294 4.0 14.0 0.03 0.23 0.23 90 1007.5
20260905063026 55 41 4.0 15.0 0.02 0.22 0.22 90 1007.6
20260905062526 55 309 5.0 15.0 0.02 0.22 0.22 90 1007.5
20260905062027 54 2 5.0 14.0 0.02 0.21 0.21 91 1007.2
20260905061527 54 324 4.0 11.0 0.02 0.21 0.21 91 1007.4
20260905061246 54 32 4.0 10.0 0.00 0.20 0.20 91 1007.4
20260905060526 54 6 3.0 9.0 0.00 0.20 0.20 91 1007.4
20260905060026 54 33 3.0 12.0 0.00 0.20 0.20 90 1007.3
20260905055744 54 348 3.0 12.0 0.00 0.20 0.20 90 1007.4
20260905055026 54 50 3.0 9.0 0.00 0.20 0.20 90 1007.2
20260905054525 54 325 3.0 13.0 0.00 0.20 0.20 90 1007.4
20260905054026 54 46 2.0 13.0 0.00 0.20 0.20 91 1007.6
20260905053526 54 293 2.0 6.0 0.01 0.20 0.20 91 1007.7
20260905053026 54 17 2.0 8.0 0.02 0.20 0.20 91 1007.7
20260905052525 54 355 2.0 8.0 0.04 0.20 0.20 92 1008.0
20260905052026 53 67 3.0 11.0 0.05 0.20 0.20 92 1008.1
20260905051527 53 341 5.0 15.0 0.06 0.20 0.20 92 1008.5
20260905051027 53 35 4.0 15.0 0.06 0.20 0.20 92 1008.7
20260905050522 53 33 3.0 8.0 0.06 0.20 0.20 92 1009.0
20260905050016 53 17 2.0 11.0 0.07 0.20 0.20 92 1008.9
20260905045507 54 73 2.0 11.0 0.07 0.20 0.20 92 1008.9
20260905045004 54 45 2.0 9.0 0.07 0.20 0.20 92 1009.2
20260905044457 53 36 2.0 9.0 0.08 0.20 0.20 91 1009.3
20260905044215 53 332 2.0 7.0 0.08 0.20 0.20 91 1009.4
20260905043445 53 52 1.0 5.0 0.07 0.18 0.19 90 1009.6
20260905042940 54 270 1.0 5.0 0.07 0.17 0.17 90 1010.5
20260905042651 54 340 1.0 8.0 0.06 0.16 0.16 89 1010.4
20260905041927 54 326 2.0 8.0 0.05 0.15 0.15 88 1010.3
20260905041421 54 320 3.0 8.0 0.05 0.14 0.14 87 1010.4
20260905040916 54 247 3.0 8.0 0.04 0.13 0.13 86 1010.3
20260905040414 54 291 3.0 8.0 0.04 0.13 0.13 86 1010.4
20260905040359 54 268 3.0 8.0 0.03 0.13 0.13 86 1010.6
20260905035414 55 0 2.0 9.0 0.03 0.13 0.13 86 1010.7
20260905035141 55 26 2.0 9.0 0.03 0.13 0.13 85 1010.7
20260905034413 55 315 2.0 8.0 0.02 0.12 0.12 86 1010.4
20260905033916 55 252 2.0 8.0 0.02 0.12 0.12 85 1010.7
20260905033413 56 315 3.0 13.0 0.02 0.11 0.11 84 1010.4
20260905032913 56 22 4.0 13.0 0.01 0.10 0.10 83 1010.7
20260905032638 57 236 3.0 9.0 0.01 0.10 0.10 83 1011.1
20260905031914 57 284 3.0 11.0 0.01 0.10 0.10 82 1010.6
20260905031637 57 272 3.0 11.0 0.00 0.09 0.09 81 1010.4